Weather History for Ruidoso, NM

Change the Weather History Date:

Saturday, January 5, 2013

  Actual Average Record
Temperature  
Mean Temperature 31 °F -  
Max Temperature 41 °F 47 °F 62 °F (2001)
Min Temperature 21 °F 27 °F 14 °F (2009)
Degree Days  
Heating Degree Days 34    
Moisture  
Dew Point 3 °F    
Average Humidity 33    
Maximum Humidity 54    
Minimum Humidity 19    
Precipitation  
Precipitation 0.00 in - - ()
Sea Level Pressure  
Sea Level Pressure 30.25 in    
Wind  
Wind Speed 10 mph (WNW)    
Max Wind Speed 21 mph    
Max Gust Speed 30 mph    
Visibility 10 miles    
Events      
Averages and records for this station are not official NWS values.
T = Trace of Precipitation, MM = Missing Value Source: NWS Daily Summary

Daily Weather History Graph

Daily Weather History Graph

Search for Another Location

Airport:

Trip Planner

Search our weather history database for the weather conditions in past years. The results will help you decide how hot, cold, wet, or windy it might be!

Date:

Astronomy

Jan. 05, 2013 Rise Set
Actual Time 7:06 AM MST 5:08 PM MST
Civil Twilight 6:39 AM MST 5:36 PM MST
Nautical Twilight 6:08 AM MST 6:06 PM MST
Astronomical Twilight 5:38 AM MST 6:37 PM MST
Moon 12:26 AM MST (1/5) 11:51 AM MST (1/5)
Length of Visible Light 10h 56m
Length of Day
10h 01m
Last Quarter, 43% of the Moon is Illuminated
Jan 5
Last Quarter
Jan 11
New
Jan 18
First Quarter
Jan 26
Full
Feb 3
Last Quarter

Hourly Weather History & Observations

Time (MST) Temp. Windchill Dew Point Humidity Pressure Visibility Wind Dir Wind Speed Gust Speed Precip Events Conditions
12:15 AM 21.2 °F - 6.8 °F 54% 30.14 in 10.0 mi Calm Calm - N/A   Clear
12:35 AM 23.0 °F 13.1 °F 5.0 °F 46% 30.14 in 10.0 mi West 9.2 mph 16.1 mph N/A   Clear
12:55 AM 26.6 °F 13.4 °F 1.4 °F 34% 30.13 in 10.0 mi West 18.4 mph 29.9 mph N/A   Clear
1:15 AM 24.8 °F 10.3 °F 3.2 °F 40% 30.14 in 10.0 mi West 20.7 mph 29.9 mph N/A   Clear
1:35 AM 24.8 °F 11.5 °F 5.0 °F 43% 30.14 in 10.0 mi West 17.3 mph 28.8 mph N/A   Clear
1:55 AM 24.8 °F 20.5 °F 1.4 °F 36% 30.16 in 10.0 mi WNW 3.5 mph - N/A   Clear
2:15 AM 23.0 °F 9.2 °F 5.0 °F 46% 30.17 in 10.0 mi West 17.3 mph 20.7 mph N/A   Clear
2:35 AM 23.0 °F 12.4 °F 3.2 °F 43% 30.17 in 10.0 mi West 10.4 mph - N/A   Clear
2:55 AM 24.8 °F 11.1 °F 1.4 °F 36% 30.16 in 10.0 mi West 18.4 mph 24.2 mph N/A   Clear
3:15 AM 24.8 °F 11.1 °F -0.4 °F 34% 30.16 in 10.0 mi West 18.4 mph 28.8 mph N/A   Clear
3:35 AM 24.8 °F 12.9 °F 1.4 °F 36% 30.17 in 10.0 mi West 13.8 mph 25.3 mph N/A   Clear
3:55 AM 24.8 °F 15.3 °F -0.4 °F 34% 30.18 in 10.0 mi WNW 9.2 mph 16.1 mph N/A   Clear
4:15 AM 24.8 °F 17.9 °F 1.4 °F 36% 30.18 in 10.0 mi WNW 5.8 mph - N/A   Clear
4:35 AM 24.8 °F 16.1 °F -0.4 °F 34% 30.18 in 10.0 mi West 8.1 mph 17.3 mph N/A   Clear
4:55 AM 24.8 °F 12.9 °F -0.4 °F 34% 30.18 in 10.0 mi WNW 13.8 mph 18.4 mph N/A   Clear
5:15 AM 24.8 °F 13.4 °F -0.4 °F 34% 30.19 in 10.0 mi West 12.7 mph 20.7 mph N/A   Clear
5:35 AM 24.8 °F 14.0 °F -0.4 °F 34% 30.20 in 10.0 mi WNW 11.5 mph - N/A   Clear
5:55 AM 24.8 °F 15.3 °F -0.4 °F 34% 30.20 in 10.0 mi WNW 9.2 mph 17.3 mph N/A   Clear
6:15 AM 24.8 °F 14.0 °F -0.4 °F 34% 30.21 in 10.0 mi WNW 11.5 mph 24.2 mph N/A   Clear
6:35 AM 24.8 °F 12.9 °F -0.4 °F 34% 30.22 in 10.0 mi NW 13.8 mph - N/A   Clear
6:55 AM 24.8 °F 12.9 °F -0.4 °F 34% 30.22 in 10.0 mi NW 13.8 mph 23.0 mph N/A   Clear
7:15 AM 24.8 °F 14.6 °F -0.4 °F 34% 30.23 in 10.0 mi NW 10.4 mph 18.4 mph N/A   Clear
7:35 AM 24.8 °F 16.1 °F -0.4 °F 34% 30.24 in 10.0 mi NW 8.1 mph - N/A   Clear
7:55 AM 24.8 °F 16.9 °F -0.4 °F 34% 30.24 in 10.0 mi NNW 6.9 mph - N/A   Clear
8:15 AM 26.6 °F 20.0 °F 1.4 °F 34% 30.24 in 10.0 mi North 5.8 mph - N/A   Clear
8:55 AM 30.2 °F 19.8 °F 1.4 °F 29% 30.23 in 10.0 mi WNW 13.8 mph 20.7 mph N/A   Clear
9:15 AM 32.0 °F 21.2 °F 1.4 °F 27% 30.25 in 10.0 mi NW 16.1 mph 25.3 mph N/A   Clear
9:55 AM 32.0 °F 22.5 °F -0.4 °F 25% 30.28 in 10.0 mi NW 12.7 mph 24.2 mph N/A   Clear
10:15 AM 32.0 °F 22.5 °F 1.4 °F 27% 30.28 in 10.0 mi NW 12.7 mph 23.0 mph N/A   Clear
10:35 AM 35.6 °F 26.2 °F -0.4 °F 22% 30.27 in 10.0 mi NW 15.0 mph 20.7 mph N/A   Clear
10:55 AM 35.6 °F 26.6 °F -0.4 °F 22% 30.27 in 10.0 mi WNW 13.8 mph 24.2 mph N/A   Clear
11:15 AM 35.6 °F 25.2 °F -0.4 °F 22% 30.26 in 10.0 mi NW 18.4 mph 25.3 mph N/A   Clear
11:35 AM 37.4 °F 27.8 °F 1.4 °F 22% 30.25 in 10.0 mi NW 17.3 mph 20.7 mph N/A   Clear
11:55 AM 37.4 °F 28.2 °F 1.4 °F 22% 30.24 in 10.0 mi NW 16.1 mph 21.9 mph N/A   Clear
12:15 PM 37.4 °F 28.2 °F 1.4 °F 22% 30.23 in 10.0 mi NW 16.1 mph 25.3 mph N/A   Clear
12:35 PM 37.4 °F 28.5 °F 1.4 °F 22% 30.23 in 10.0 mi NW 15.0 mph 20.7 mph N/A   Clear
12:55 PM 39.2 °F 31.6 °F 1.4 °F 21% 30.22 in 10.0 mi WNW 12.7 mph 18.4 mph N/A   Clear
1:15 PM 39.2 °F 33.0 °F 1.4 °F 21% 30.22 in 10.0 mi NW 9.2 mph - N/A   Clear
1:35 PM 39.2 °F 32.5 °F 1.4 °F 21% 30.22 in 10.0 mi NW 10.4 mph 17.3 mph N/A   Clear
1:55 PM 41.0 °F 35.8 °F 1.4 °F 19% 30.22 in 10.0 mi NW 8.1 mph - N/A   Clear
2:15 PM 41.0 °F 35.8 °F 3.2 °F 21% 30.22 in 10.0 mi NW 8.1 mph - N/A   Clear
2:35 PM 39.2 °F 32.0 °F 3.2 °F 22% 30.23 in 10.0 mi WNW 11.5 mph - N/A   Clear
2:55 PM 39.2 °F 33.6 °F 1.4 °F 21% 30.24 in 10.0 mi NW 8.1 mph - N/A   Clear
3:15 PM 39.2 °F 33.0 °F 1.4 °F 21% 30.24 in 10.0 mi WNW 9.2 mph - N/A   Clear
3:55 PM 39.2 °F 33.0 °F 5.0 °F 24% 30.25 in 10.0 mi WNW 9.2 mph - N/A   Clear
4:15 PM 37.4 °F 29.3 °F 5.0 °F 26% 30.26 in 10.0 mi WNW 12.7 mph - N/A   Clear
4:35 PM 35.6 °F 28.6 °F 3.2 °F 26% 30.26 in 10.0 mi WNW 9.2 mph - N/A   Clear
4:55 PM 32.0 °F - 5.0 °F 32% 30.27 in 10.0 mi Calm Calm - N/A   Clear
5:15 PM 32.0 °F 25.6 °F 5.0 °F 32% 30.28 in 10.0 mi SSE 6.9 mph - N/A   Clear
5:35 PM 32.0 °F 27.5 °F 5.0 °F 32% 30.28 in 10.0 mi South 4.6 mph - N/A   Clear
5:55 PM 32.0 °F 26.4 °F 5.0 °F 32% 30.29 in 10.0 mi SSW 5.8 mph - N/A   Clear
6:15 PM 30.2 °F 25.4 °F 5.0 °F 34% 30.30 in 10.0 mi WSW 4.6 mph - N/A   Clear
6:35 PM 30.2 °F 24.3 °F 5.0 °F 34% 30.30 in 10.0 mi West 5.8 mph - N/A   Clear
6:55 PM 32.0 °F 28.7 °F 3.2 °F 30% 30.31 in 10.0 mi SW 3.5 mph - N/A   Clear
7:15 PM 28.4 °F 24.6 °F 6.8 °F 40% 30.32 in 10.0 mi SW 3.5 mph - N/A   Clear
7:35 PM 30.2 °F 25.4 °F 3.2 °F 32% 30.32 in 10.0 mi West 4.6 mph - N/A   Clear
7:55 PM 26.6 °F - 3.2 °F 37% 30.32 in 10.0 mi Calm Calm - N/A   Clear
8:15 PM 26.6 °F 22.6 °F 5.0 °F 40% 30.33 in 10.0 mi ENE 3.5 mph - N/A   Clear
8:35 PM 24.8 °F 20.5 °F 5.0 °F 43% 30.33 in 10.0 mi NE 3.5 mph - N/A   Clear
8:55 PM 26.6 °F 21.2 °F 5.0 °F 40% 30.33 in 10.0 mi West 4.6 mph - N/A   Clear
9:15 PM 26.6 °F 21.2 °F 5.0 °F 40% 30.34 in 10.0 mi NE 4.6 mph - N/A   Clear
9:35 PM 24.8 °F - 5.0 °F 43% 30.34 in 10.0 mi Calm Calm - N/A   Clear
9:55 PM 26.6 °F 21.2 °F 5.0 °F 40% 30.35 in 10.0 mi SW 4.6 mph - N/A   Clear
10:15 PM 26.6 °F 20.0 °F 5.0 °F 40% 30.36 in 10.0 mi SW 5.8 mph - N/A   Clear
10:35 PM 28.4 °F 24.6 °F 8.6 °F 43% 30.36 in 10.0 mi SW 3.5 mph - N/A   Clear
11:15 PM 24.8 °F 17.9 °F 8.6 °F 50% 30.35 in 10.0 mi SW 5.8 mph - N/A   Clear
11:35 PM 23.0 °F - 6.8 °F 50% 30.35 in 10.0 mi Calm Calm - N/A   Clear
11:55 PM 26.6 °F 20.0 °F 8.6 °F 47% 30.35 in 10.0 mi SSW 5.8 mph - N/A   Clear